Change the Weather History Date:

Friday, March 23, 2012

  Actual Average Record
Temperature  
Mean Temperature 28 °F 36 °F  
Max Temperature 37 °F 48 °F 74 °F (1993)
Min Temperature 18 °F 25 °F -15 °F (1964)
Degree Days  
Heating Degree Days 37 29  
Month to date heating degree days 566 736  
Since 1 July heating degree days 5375 6241  
Cooling Degree Days 0 0  
Month to date cooling degree days 0 0  
Year to date cooling degree days 0 0  
Moisture  
Dew Point 28 °F    
Average Humidity 82    
Maximum Humidity 100    
Minimum Humidity 64    
Precipitation  
Precipitation 0.37 in 0.03 in 0.60 in (1920)
Month to date precipitation 1.03 0.62  
Year to date precipitation 1.64 1.60  
Snow  
Snow 4.80 in 0.40 in 7.30 in (1996)
Month to date snowfall 10.5 8.8  
Since 1 July snowfall 29.3 48.8  
Snow Depth 1.00 in    
Sea Level Pressure  
Sea Level Pressure 30.02 in    
Wind  
Wind Speed 7 mph (NNW)    
Max Wind Speed 17 mph    
Max Gust Speed 21 mph    
Visibility 3 miles    
Events Fog , Snow    
T = Trace of Precipitation, MM = Missing Value Source: NWS Daily Summary

Daily Weather History Graph

Daily Weather History Graph

Search for Another Location

Airport or City:

Trip Planner

Search our weather history database for the weather conditions in past years. The results will help you decide how hot, cold, wet, or windy it might be!

Date:

Astronomy

Mar. 23, 2012 Rise Set
Actual Time 7:21 AM MDT 7:43 PM MDT
Civil Twilight 6:50 AM MDT 8:14 PM MDT
Nautical Twilight 6:14 AM MDT 8:50 PM MDT
Astronomical Twilight 5:36 AM MDT 9:28 PM MDT
Moon 7:23 AM MDT (3/23) 9:19 PM MDT (3/23)
Length of Visible Light 13h 23m
Length of Day
12h 22m
New Moon, 1% of the Moon is Illuminated
Mar 23
New Moon
Mar 30
First Quarter
Apr 6
Full
Apr 13
Last Quarter
Apr 21
New

Hourly Weather History & Observations

Time (MDT) Temp. Windchill Dew Point Humidity Pressure Visibility Wind Dir Wind Speed Gust Speed Precip Events Conditions
12:53 AM 35.1 °F 27.4 °F 27.0 °F 72% 29.94 in 10.0 mi NE 10.4 mph - N/A   Clear
1:53 AM 36.0 °F 28.0 °F 26.1 °F 67% 29.92 in 10.0 mi NE 11.5 mph - N/A   Clear
2:53 AM 36.0 °F 30.3 °F 27.0 °F 70% 29.91 in 10.0 mi NE 6.9 mph - N/A   Mostly Cloudy
3:53 AM 36.0 °F 33.3 °F 25.0 °F 64% 29.95 in 10.0 mi North 3.5 mph - N/A   Overcast
4:45 AM 33.8 °F 24.3 °F 26.6 °F 75% 29.94 in 2.5 mi NW 13.8 mph - 0.00 in Snow Light Snow
4:49 AM 32.0 °F 22.1 °F 26.6 °F 80% 29.93 in 1.2 mi NW 13.8 mph - 0.00 in Snow Light Snow
4:53 AM 30.9 °F 20.7 °F 27.0 °F 85% 29.96 in 1.0 mi NNW 13.8 mph - 0.01 in Snow Light Snow
4:58 AM 30.2 °F 19.3 °F 26.6 °F 86% 29.92 in 0.8 mi NNW 15.0 mph - 0.00 in Snow Light Snow
5:20 AM 30.2 °F 19.3 °F 28.4 °F 93% 29.91 in 2.0 mi North 15.0 mph - 0.02 in Snow Light Snow
5:29 AM 30.2 °F 19.3 °F 28.4 °F 93% 29.91 in 5.0 mi North 15.0 mph - 0.02 in Snow Light Snow
5:53 AM 30.9 °F 25.2 °F 28.9 °F 92% 29.99 in 10.0 mi NW 5.8 mph - 0.02 in   Mostly Cloudy
6:08 AM 30.2 °F 24.3 °F 28.4 °F 93% 29.99 in 10.0 mi SSW 5.8 mph - N/A   Overcast
6:21 AM 30.2 °F 26.7 °F 28.4 °F 93% 29.97 in 2.5 mi NNW 3.5 mph - 0.00 in Snow Light Snow
6:23 AM 30.2 °F 25.4 °F 28.4 °F 93% 29.96 in 0.5 mi North 4.6 mph - 0.00 in Snow Light Snow
6:41 AM 30.2 °F 23.4 °F 28.4 °F 93% 29.92 in 1.5 mi North 6.9 mph - 0.03 in Snow Light Snow
6:46 AM 30.2 °F 25.4 °F 28.4 °F 93% 29.93 in 3.0 mi NW 4.6 mph - 0.03 in Snow Light Snow
6:53 AM 30.0 °F 25.2 °F 28.9 °F 96% 30.00 in 5.0 mi NW 4.6 mph - 0.03 in Snow Light Snow
7:38 AM 30.2 °F 24.3 °F 28.4 °F 93% 29.98 in 2.0 mi North 5.8 mph - 0.00 in Snow Light Snow
7:48 AM 30.2 °F 25.4 °F 28.4 °F 93% 29.97 in 1.0 mi North 4.6 mph - 0.01 in Snow Light Snow
7:53 AM 30.2 °F 23.4 °F 28.4 °F 93% 29.96 in 0.8 mi NNE 6.9 mph - N/A Snow Light Snow
8:00 AM 30.2 °F 22.6 °F 28.4 °F 93% 29.97 in 0.2 mi North 8.1 mph - N/A Fog , Snow Snow
8:15 AM 30.2 °F 23.4 °F 28.4 °F 93% 29.96 in 0.8 mi North 6.9 mph - 0.02 in Snow Light Snow
8:24 AM 30.2 °F 26.7 °F 28.4 °F 93% 29.97 in 1.0 mi NNW 3.5 mph - 0.02 in Snow Light Snow
8:39 AM 30.2 °F - 28.4 °F 93% 29.98 in 2.0 mi Calm Calm - 0.02 in Snow Light Snow
8:48 AM 30.2 °F 26.7 °F 28.4 °F 93% 29.98 in 7.0 mi NW 3.5 mph - 0.02 in   Overcast
8:53 AM 30.0 °F 25.2 °F 28.9 °F 96% 30.05 in 9.0 mi NNW 4.6 mph - 0.02 in   Overcast
9:49 AM 30.2 °F 23.4 °F 28.4 °F 93% 29.96 in 1.0 mi NNW 6.9 mph - N/A   Overcast
9:53 AM 30.9 °F 24.3 °F 28.9 °F 92% 30.06 in 1.0 mi NNW 6.9 mph - 0.00 in Snow Light Snow
10:12 AM 30.2 °F 23.4 °F 28.4 °F 93% 29.96 in 1.0 mi NNW 6.9 mph - 0.00 in   Overcast
10:32 AM 30.2 °F 23.4 °F 28.4 °F 93% 29.96 in 4.0 mi North 6.9 mph - 0.00 in   Overcast
10:53 AM 32.0 °F 26.4 °F 28.9 °F 88% 30.06 in 5.0 mi North 5.8 mph - 0.00 in   Overcast
11:43 AM 32.0 °F 24.8 °F 30.2 °F 93% 29.95 in 2.0 mi NNE 8.1 mph - 0.01 in   Overcast
11:53 AM 30.9 °F 23.5 °F 30.0 °F 96% 30.05 in 0.5 mi North 8.1 mph - 0.01 in   Overcast
12:14 PM 30.2 °F 23.4 °F 30.2 °F 100% 29.94 in 1.0 mi NNE 6.9 mph - N/A   Overcast
12:53 PM 30.9 °F 22.2 °F 28.9 °F 92% 30.05 in 1.0 mi NNW 10.4 mph - N/A   Overcast
1:02 PM 30.2 °F 22.6 °F 28.4 °F 93% 29.94 in 0.2 mi NNW 8.1 mph - N/A   Overcast
1:35 PM 30.2 °F 21.3 °F 28.4 °F 93% 29.95 in 2.0 mi WNW 10.4 mph - 0.00 in Snow Light Snow
1:43 PM 30.2 °F 21.3 °F 28.4 °F 93% 29.94 in 3.0 mi NW 10.4 mph - 0.00 in Snow Light Snow
1:53 PM 30.9 °F 22.2 °F 28.0 °F 89% 30.05 in 4.0 mi NNW 10.4 mph - 0.00 in   Overcast
2:07 PM 30.2 °F 24.3 °F 28.4 °F 93% 29.96 in 2.0 mi North 5.8 mph - 0.00 in Snow Light Snow
2:12 PM 30.2 °F 21.3 °F 28.4 °F 93% 29.98 in 1.2 mi West 10.4 mph - 0.00 in Snow Light Snow
2:22 PM 30.2 °F 20.2 °F 28.4 °F 93% 29.98 in 0.5 mi WNW 12.7 mph - 0.02 in Fog , Snow Light Snow
2:30 PM 30.2 °F 21.9 °F 28.4 °F 93% 29.96 in 0.2 mi NNW 9.2 mph - 0.03 in Fog , Snow Snow
2:53 PM 28.9 °F 19.8 °F 28.0 °F 96% 30.08 in 0.2 mi NW 10.4 mph - 0.10 in Fog , Snow Heavy Snow
3:05 PM 28.4 °F 22.2 °F 28.4 °F 100% 29.98 in 0.2 mi NNW 5.8 mph - 0.04 in Fog , Snow Heavy Snow
3:19 PM 28.4 °F 23.3 °F 26.6 °F 93% 29.99 in 0.2 mi NW 4.6 mph - 0.07 in Fog , Snow Heavy Snow
3:53 PM 30.0 °F 25.2 °F 28.0 °F 92% 30.09 in 0.5 mi North 4.6 mph - 0.13 in Fog , Snow Snow
4:00 PM 30.2 °F 25.4 °F 26.6 °F 86% 29.98 in 0.5 mi NW 4.6 mph - 0.00 in Fog , Snow Snow
4:19 PM 30.2 °F 26.7 °F 28.4 °F 93% 29.99 in 0.8 mi NW 3.5 mph - 0.01 in Snow Light Snow
4:53 PM 30.0 °F 26.5 °F 28.0 °F 92% 30.11 in 1.0 mi NNW 3.5 mph - 0.03 in Snow Light Snow
5:12 PM 30.2 °F 23.4 °F 28.4 °F 93% 29.98 in 2.0 mi NNW 6.9 mph - 0.00 in   Overcast
5:53 PM 30.0 °F 23.2 °F 28.0 °F 92% 30.13 in 2.0 mi NW 6.9 mph - 0.00 in   Overcast
6:09 PM 30.2 °F 23.4 °F 26.6 °F 86% 30.00 in 3.0 mi NW 6.9 mph - N/A   Overcast
6:53 PM 30.0 °F 25.2 °F 27.0 °F 88% 30.16 in 5.0 mi WNW 4.6 mph - N/A   Overcast
7:53 PM 28.9 °F 21.9 °F 27.0 °F 92% 30.17 in 6.0 mi North 6.9 mph - N/A   Overcast
8:28 PM 28.4 °F 23.3 °F 26.6 °F 93% 30.05 in 7.0 mi North 4.6 mph - N/A   Overcast
8:53 PM 28.0 °F 22.8 °F 26.1 °F 92% 30.22 in 7.0 mi NW 4.6 mph - N/A   Overcast
9:53 PM 28.0 °F 22.8 °F 26.1 °F 92% 30.24 in 7.0 mi West 4.6 mph - N/A   Overcast
10:53 PM 28.0 °F 24.2 °F 26.1 °F 92% 30.26 in 3.0 mi WNW 3.5 mph - N/A Snow Light Snow
10:58 PM 28.4 °F - 26.6 °F 93% 30.11 in 2.5 mi Calm Calm - 0.00 in Snow Light Snow
11:08 PM 26.6 °F 21.2 °F 24.8 °F 93% 30.12 in 3.0 mi WNW 4.6 mph - 0.00 in Snow Light Snow
11:13 PM 26.6 °F 20.0 °F 24.8 °F 93% 30.12 in 2.5 mi WNW 5.8 mph - 0.00 in Snow Light Snow
11:22 PM 26.6 °F 21.2 °F 24.8 °F 93% 30.12 in 3.0 mi West 4.6 mph - 0.00 in Snow Light Snow
11:33 PM 26.6 °F - 24.8 °F 93% 30.13 in 4.0 mi Calm Calm - 0.00 in   Overcast
11:40 PM 26.6 °F - 24.8 °F 93% 30.13 in 5.0 mi Calm Calm - 0.00 in   Overcast
11:53 PM 25.0 °F 20.7 °F 24.1 °F 96% 30.28 in 4.0 mi WSW 3.5 mph - 0.00 in   Mostly Cloudy